| time (UTC) | temp F | wind direction | speed knots | gust knots | rain 1hr in | rain 24hr in | rain mn in | humidity % | barometer mb |
| 20260510170031 | 60 | 316 | 8.7 | 14.8 | 0.00 | 0.00 | 0.00 | 36 | 1020.0 |
| 20260510164529 | 60 | 314 | 7.8 | 17.4 | 0.00 | 0.00 | 0.00 | 36 | 1020.1 |
| 20260510163028 | 60 | 326 | 10.4 | 14.8 | 0.00 | 0.00 | 0.00 | 37 | 1020.1 |
| 20260510161526 | 59 | 352 | 7.8 | 13.9 | 0.00 | 0.00 | 0.00 | 38 | 1019.9 |
| 20260510160025 | 58 | 335 | 6.1 | 13.9 | 0.00 | 0.00 | 0.00 | 39 | 1019.9 |
| 20260510154529 | 58 | 338 | 9.6 | 14.8 | 0.00 | 0.00 | 0.00 | 38 | 1019.9 |
| 20260510153039 | 58 | 319 | 7.0 | 11.3 | 0.00 | 0.00 | 0.00 | 39 | 1020.0 |
| 20260510151522 | 58 | 326 | 6.1 | 11.3 | 0.00 | 0.00 | 0.00 | 38 | 1019.9 |
| 20260510150018 | 57 | 323 | 5.2 | 10.4 | 0.00 | 0.00 | 0.00 | 39 | 1019.9 |
| 20260510144536 | 57 | 305 | 5.2 | 8.7 | 0.00 | 0.00 | 0.00 | 41 | 1020.2 |
| 20260510143013 | 55 | 296 | 3.5 | 8.7 | 0.00 | 0.00 | 0.00 | 42 | 1020.1 |
| 20260510141512 | 54 | 274 | 3.5 | 7.8 | 0.00 | 0.00 | 0.00 | 44 | 1020.2 |
| 20260510140008 | 54 | 272 | 3.5 | 6.1 | 0.00 | 0.00 | 0.00 | 44 | 1020.2 |
| 20260510134504 | 52 | 266 | 3.5 | 5.2 | 0.00 | 0.00 | 0.00 | 47 | 1020.2 |
| 20260510133003 | 52 | 245 | 2.6 | 7.0 | 0.00 | 0.00 | 0.00 | 48 | 1020.1 |
| 20260510131559 | 51 | 250 | 3.5 | 6.1 | 0.00 | 0.00 | 0.00 | 51 | 1020.0 |
| 20260510130056 | 49 | 269 | 3.5 | 6.1 | 0.00 | 0.00 | 0.00 | 52 | 1019.9 |
| 20260510124551 | 48 | 278 | 2.6 | 5.2 | 0.00 | 0.00 | 0.00 | 52 | 1019.8 |
| 20260510123054 | 46 | 272 | 3.5 | 4.3 | 0.00 | 0.00 | 0.00 | 57 | 1019.7 |
| 20260510121549 | 44 | 271 | 2.6 | 4.3 | 0.00 | 0.00 | 0.00 | 60 | 1019.7 |
| 20260510120049 | 40 | 240 | 0.9 | 2.6 | 0.00 | 0.00 | 0.00 | 64 | 1019.6 |
| 20260510114547 | 39 | 236 | 2.6 | 4.3 | 0.00 | 0.00 | 0.00 | 65 | 1019.5 |
| 20260510113046 | 38 | 229 | 1.7 | 3.5 | 0.00 | 0.00 | 0.00 | 66 | 1019.5 |
| 20260510111548 | 38 | 229 | 2.6 | 4.3 | 0.00 | 0.00 | 0.00 | 65 | 1019.6 |
| 20260510110043 | 38 | 240 | 2.6 | 4.3 | 0.00 | 0.00 | 0.00 | 65 | 1019.5 |
| 20260510104553 | 38 | 246 | 1.7 | 3.5 | 0.00 | 0.00 | 0.00 | 64 | 1019.3 |
| 20260510103042 | 39 | 252 | 1.7 | 3.5 | 0.00 | 0.00 | 0.00 | 64 | 1019.2 |
| 20260510101546 | 39 | 253 | 2.6 | 4.3 | 0.00 | 0.00 | 0.00 | 63 | 1019.1 |
| 20260510100035 | 38 | 233 | 2.6 | 4.3 | 0.00 | 0.00 | 0.00 | 63 | 1018.8 |
| 20260510094532 | 39 | 233 | 2.6 | 3.5 | 0.00 | 0.00 | 0.00 | 62 | 1018.6 |
| 20260510093030 | 39 | 233 | 3.5 | 4.3 | 0.00 | 0.00 | 0.00 | 61 | 1018.4 |
| 20260510091528 | 41 | 237 | 1.7 | 3.5 | 0.00 | 0.00 | 0.00 | 60 | 1018.3 |
| 20260510090026 | 41 | 232 | 1.7 | 3.5 | 0.00 | 0.00 | 0.00 | 60 | 1018.1 |
| 20260510084542 | 41 | 229 | 2.6 | 4.3 | 0.00 | 0.00 | 0.00 | 60 | 1017.9 |
| 20260510083023 | 40 | 229 | 3.5 | 5.2 | 0.00 | 0.00 | 0.00 | 62 | 1017.7 |
| 20260510081530 | 42 | 309 | 1.7 | 2.6 | 0.00 | 0.00 | 0.00 | 55 | 1017.6 |
| 20260510080015 | 43 | 333 | 0.9 | 2.6 | 0.00 | 0.00 | 0.00 | 53 | 1017.3 |
| 20260510074513 | 44 | 333 | 0.9 | 2.6 | 0.00 | 0.00 | 0.00 | 52 | 1017.3 |
| 20260510073113 | 44 | 335 | 1.7 | 2.6 | 0.00 | 0.00 | 0.00 | 52 | 1017.2 |
| 20260510071509 | 45 | 338 | 0.9 | 1.7 | 0.00 | 0.00 | 0.00 | 50 | 1017.1 |
| 20260510070008 | 45 | 338 | 0.9 | 1.7 | 0.00 | 0.00 | 0.00 | 49 | 1017.2 |
| 20260510064506 | 45 | 338 | 0.9 | 2.6 | 0.00 | 0.00 | 0.00 | 48 | 1017.2 |
| 20260510063007 | 45 | 338 | 1.7 | 2.6 | 0.00 | 0.00 | 0.00 | 48 | 1017.3 |
| 20260510061509 | 46 | 338 | 1.7 | 3.5 | 0.00 | 0.00 | 0.00 | 47 | 1017.4 |
| 20260510060005 | 46 | 338 | 2.6 | 3.5 | 0.00 | 0.00 | 0.00 | 46 | 1017.2 |
| 20260510054603 | 47 | 333 | 2.6 | 3.5 | 0.00 | 0.00 | 0.00 | 46 | 1016.9 |
| 20260510053100 | 47 | 333 | 2.6 | 4.3 | 0.00 | 0.00 | 0.00 | 45 | 1016.7 |
| 20260510051555 | 47 | 335 | 3.5 | 5.2 | 0.00 | 0.00 | 0.00 | 44 | 1016.4 |
| 20260510050052 | 48 | 331 | 3.5 | 5.2 | 0.00 | 0.00 | 0.00 | 44 | 1016.3 |
| 20260510044550 | 48 | 335 | 3.5 | 5.2 | 0.00 | 0.00 | 0.00 | 44 | 1016.2 |
| 20260510043053 | 48 | 337 | 3.5 | 5.2 | 0.00 | 0.00 | 0.00 | 44 | 1016.0 |
| 20260510041548 | 48 | 338 | 2.6 | 4.3 | 0.00 | 0.00 | 0.00 | 43 | 1016.0 |
| 20260510040050 | 49 | 335 | 3.5 | 5.2 | 0.00 | 0.00 | 0.00 | 42 | 1015.8 |
| 20260510034552 | 49 | 333 | 3.5 | 4.3 | 0.00 | 0.00 | 0.00 | 41 | 1015.7 |
| 20260510033042 | 50 | 330 | 4.3 | 6.1 | 0.00 | 0.00 | 0.00 | 40 | 1015.5 |
| 20260510031556 | 51 | 338 | 4.3 | 7.0 | 0.00 | 0.00 | 0.00 | 38 | 1015.2 |
| 20260510030039 | 50 | 336 | 5.2 | 7.8 | 0.00 | 0.00 | 0.00 | 39 | 1015.1 |
| 20260510024538 | 51 | 339 | 5.2 | 7.8 | 0.00 | 0.00 | 0.00 | 38 | 1014.9 |
| 20260510023041 | 51 | 337 | 5.2 | 7.0 | 0.00 | 0.00 | 0.00 | 37 | 1014.6 |
| 20260510021535 | 52 | 340 | 5.2 | 7.0 | 0.00 | 0.00 | 0.00 | 37 | 1014.2 |
| 20260510020029 | 53 | 345 | 5.2 | 7.8 | 0.00 | 0.00 | 0.00 | 34 | 1013.7 |
| 20260510014527 | 54 | 338 | 6.1 | 7.8 | 0.00 | 0.00 | 0.00 | 33 | 1013.4 |
| 20260510013025 | 55 | 329 | 6.1 | 7.8 | 0.00 | 0.00 | 0.00 | 33 | 1013.1 |
| 20260510011523 | 55 | 335 | 7.0 | 11.3 | 0.00 | 0.00 | 0.00 | 34 | 1012.9 |
| 20260510010021 | 56 | 342 | 10.4 | 13.0 | 0.00 | 0.00 | 0.00 | 33 | 1012.5 |
| 20260510004519 | 57 | 348 | 8.7 | 13.9 | 0.00 | 0.00 | 0.00 | 32 | 1012.4 |
| 20260510003019 | 58 | 347 | 10.4 | 15.6 | 0.00 | 0.00 | 0.00 | 31 | 1012.2 |
| 20260510001515 | 58 | 339 | 11.3 | 14.8 | 0.00 | 0.00 | 0.00 | 31 | 1012.1 |
| 20260510000014 | 59 | 328 | 9.6 | 16.5 | 0.00 | 0.00 | 0.00 | 31 | 1011.8 |
| 20260509234522 | 59 | 345 | 10.4 | 16.5 | 0.00 | 0.00 | 0.00 | 30 | 1011.7 |
| 20260509233010 | 60 | 350 | 8.7 | 18.2 | 0.00 | 0.00 | 0.00 | 29 | 1011.4 |
| 20260509231509 | 60 | 337 | 10.4 | 19.1 | 0.00 | 0.00 | 0.00 | 29 | 1011.3 |
| 20260509230007 | 60 | 349 | 10.4 | 18.2 | 0.00 | 0.00 | 0.00 | 29 | 1011.1 |
| 20260509224506 | 60 | 331 | 9.6 | 16.5 | 0.00 | 0.00 | 0.00 | 28 | 1010.9 |
| 20260509223003 | 61 | 323 | 10.4 | 17.4 | 0.00 | 0.00 | 0.00 | 28 | 1010.7 |
| 20260509221502 | 61 | 327 | 10.4 | 14.8 | 0.00 | 0.00 | 0.00 | 29 | 1010.4 |
| 20260509214559 | 61 | 345 | 13.0 | 19.1 | 0.00 | 0.00 | 0.00 | 28 | 1010.1 |
| 20260509213057 | 60 | 330 | 8.7 | 20.0 | 0.00 | 0.00 | 0.00 | 31 | 1010.0 |
| 20260509211555 | 61 | 350 | 11.3 | 16.5 | 0.00 | 0.00 | 0.00 | 31 | 1009.8 |
| 20260509210105 | 60 | 345 | 12.2 | 18.2 | 0.00 | 0.00 | 0.00 | 31 | 1009.7 |
| 20260509204557 | 61 | 327 | 10.4 | 20.0 | 0.00 | 0.00 | 0.00 | 30 | 1009.6 |
| 20260509203051 | 60 | 345 | 11.3 | 19.1 | 0.00 | 0.00 | 0.00 | 33 | 1009.6 |
| 20260509201550 | 61 | 345 | 13.9 | 18.2 | 0.00 | 0.00 | 0.00 | 31 | 1009.4 |
| 20260509200051 | 60 | 342 | 16.5 | 20.0 | 0.00 | 0.00 | 0.00 | 32 | 1009.3 |
| 20260509194547 | 60 | 314 | 7.8 | 20.0 | 0.00 | 0.00 | 0.00 | 34 | 1009.1 |
| 20260509193044 | 60 | 346 | 13.9 | 20.0 | 0.00 | 0.00 | 0.00 | 33 | 1009.0 |
| 20260509191544 | 61 | 338 | 11.3 | 20.9 | 0.00 | 0.00 | 0.00 | 33 | 1008.9 |
| 20260509190052 | 60 | 348 | 16.5 | 20.9 | 0.00 | 0.00 | 0.00 | 35 | 1008.5 |
| 20260509184603 | 61 | 355 | 16.5 | 21.7 | 0.00 | 0.00 | 0.00 | 36 | 1008.7 |
| 20260509183038 | 60 | 338 | 11.3 | 19.1 | 0.00 | 0.00 | 0.00 | 39 | 1008.5 |
| 20260509181544 | 59 | 330 | 8.7 | 18.2 | 0.00 | 0.00 | 0.00 | 40 | 1008.5 |
| 20260509180036 | 58 | 338 | 6.1 | 20.9 | 0.00 | 0.00 | 0.00 | 40 | 1008.4 |
| 20260509174537 | 59 | 341 | 12.2 | 17.4 | 0.00 | 0.00 | 0.00 | 40 | 1008.1 |
| 20260509173035 | 59 | 328 | 12.2 | 18.2 | 0.00 | 0.00 | 0.00 | 43 | 1008.0 |
| 20260509171533 | 58 | 339 | 12.2 | 19.1 | 0.00 | 0.00 | 0.00 | 44 | 1008.1 |